Location: Dana
(41.8364°N, 106.7042°W)
Time: 20:46:46
(UTC+00:00)

Tiros 1 despin weight - Pass Details

Date: 14 May 2026
Orbit: 555 x 591 km, 48.2° (Epoch: 1 June)

Event Time Altitude Azimuth Distance (km) Brightness Sun altitude
Rises 11:57:54 0° 221° (SW) 2,752 ? 0.9°
Reaches altitude 10° 12:00:14 10° 214° (SW) 1,852 ? 1.3°
Maximum altitude 12:04:14 42° 143° (SE) 804 ? 2.0°
Drops below altitude 10° 12:08:13 10° 73° (ENE) 1,843 ? 2.7°
Sets 12:10:32 0° 66° (ENE) 2,737 ? 3.0°
